,

(GMT )
Resia Pass

Weather History for LIVE - November, 2013

Change the Weather History Date:

Saturday, November 30, 2013

  Actual Average Record
Temperature  
Mean Temperature 32 °F -  
Max Temperature 39 °F 36 °F 53 °F (2006)
Min Temperature 26 °F 24 °F 12 °F (2005)
Degree Days  
Heating Degree Days 32    
Moisture  
Dew Point 25 °F    
Average Humidity 76    
Maximum Humidity 100    
Minimum Humidity 45    
Precipitation  
Precipitation 0.00 in - - ()
Sea Level Pressure  
Sea Level Pressure 29.92 in    
Wind  
Wind Speed 5 mph ()    
Max Wind Speed 9 mph    
Max Gust Speed 21 mph    
Visibility 5.7 miles    
Events Snow    
Averages and records for this station are not official NWS values.
T = Trace of Precipitation, MM = Missing Value Source: Averaged Metar Reports

Daily Weather History Graph

Daily Weather History Graph

Search for Another Location

Airport or City:

Trip Planner

Search our weather history database for the weather conditions in past years. The results will help you decide how hot, cold, wet, or windy it might be!

Date:

Astronomy

Nov. 30, 2013 Rise Set
Actual Time 7:41 AM CET 4:31 PM CET
Civil Twilight 7:06 AM CET 5:06 PM CET
Nautical Twilight 6:28 AM CET 5:44 PM CET
Astronomical Twilight 5:52 AM CET 6:20 PM CET
Moon 4:24 AM CET (11/30) 2:52 PM CET (11/30)
Length of Visible Light 9h 59m
Length of Day
8h 50m
Waning Crescent, 9% of the Moon is Illuminated
Nov 30
Waning Crescent
Dec 3
New
Dec 9
First Quarter
Dec 17
Full
Dec 25
Last Quarter

Hourly Weather History & Observations

Time (CET) Temp. Windchill Dew Point Humidity Pressure Visibility Wind Dir Wind Speed Gust Speed Precip Events Conditions
12:55 AM 35.6 °F 30.7 °F 24.8 °F 65% 29.86 in - North 5.8 mph - N/A   Clear
1:55 AM 35.6 °F 30.7 °F 24.8 °F 65% 29.86 in - NNE 5.8 mph - N/A   Clear
2:55 AM 33.8 °F 30.8 °F 26.6 °F 75% 29.83 in - NNE 3.5 mph - N/A   Clear
3:55 AM 33.8 °F - 26.6 °F 75% 29.80 in - North 2.3 mph - N/A   Clear
4:55 AM 33.8 °F - 26.6 °F 75% 29.80 in - Calm Calm - N/A   Clear
5:55 AM 33.8 °F 29.6 °F 28.4 °F 81% 29.77 in - NNE 4.6 mph - N/A   Clear
6:55 AM 33.8 °F 28.6 °F 28.4 °F 81% 29.77 in - NNE 5.8 mph - N/A   Clear
7:55 AM 33.8 °F 27.7 °F 28.4 °F 81% 29.80 in - North 6.9 mph 18.4 mph N/A   Clear
8:55 AM 32.0 °F 26.4 °F 32.0 °F 100% 29.83 in 5.0 mi NNE 5.8 mph - N/A Snow Light Snow
9:55 AM 32.0 °F 24.2 °F 26.6 °F 80% 29.86 in 5.0 mi North 9.2 mph 20.7 mph N/A Snow Light Snow
10:55 AM 32.0 °F 24.8 °F 26.6 °F 80% 29.89 in 6.2 mi North 8.1 mph 19.6 mph N/A   Overcast
11:55 AM 33.8 °F 29.6 °F 19.4 °F 56% 29.89 in 6.2 mi NNW 4.6 mph 16.1 mph N/A   Scattered Clouds
12:55 PM 39.2 °F 35.0 °F 19.4 °F 45% 29.89 in 6.2 mi NNE 5.8 mph - N/A   Scattered Clouds
1:55 PM 37.4 °F 32.1 °F 23.0 °F 56% 29.92 in - NNE 6.9 mph 18.4 mph N/A   Clear
2:55 PM 37.4 °F 30.8 °F 21.2 °F 52% 29.92 in - North 9.2 mph 20.7 mph N/A   Clear
3:55 PM 32.0 °F 26.4 °F 19.4 °F 60% 29.95 in - NNE 5.8 mph - N/A   Clear
4:55 PM 32.0 °F 26.4 °F 19.4 °F 60% 29.98 in - NE 5.8 mph - N/A   Clear
5:55 PM 30.2 °F 24.3 °F 23.0 °F 75% 30.01 in - NNE 5.8 mph - N/A   Clear
6:55 PM 30.2 °F 22.6 °F 24.8 °F 80% 30.04 in - NE 8.1 mph 19.6 mph N/A   Clear
7:55 PM 28.4 °F 22.2 °F 26.6 °F 93% 30.06 in - NE 5.8 mph 17.3 mph N/A   Clear
8:55 PM 28.4 °F 21.2 °F 26.6 °F 93% 30.09 in - North 6.9 mph 18.4 mph N/A   Clear
9:55 PM 26.6 °F 21.2 °F 24.8 °F 93% 30.09 in - NNE 4.6 mph 16.1 mph N/A   Clear
10:55 PM 26.6 °F 18.2 °F 26.6 °F 100% 30.12 in - NNE 8.1 mph 19.6 mph N/A   Clear
11:55 PM 26.6 °F 19.1 °F 26.6 °F 100% 30.12 in - NNE 6.9 mph 18.4 mph N/A   Clear